Year,Month,Day,Hour,Minute,Value (Times are PST for temperature in C)
2009,06,03,00,00,17.90
2009,06,03,00,01,17.90
2009,06,03,00,02,17.90
2009,06,03,00,03,17.90
2009,06,03,00,04,17.90
2009,06,03,00,05,17.90
2009,06,03,00,06,17.90
2009,06,03,00,07,17.90
2009,06,03,00,08,17.90
2009,06,03,00,09,17.90
2009,06,03,00,10,17.90
2009,06,03,00,11,17.90
2009,06,03,00,12,17.90
2009,06,03,00,13,17.90
2009,06,03,00,14,17.80
2009,06,03,00,15,17.80
2009,06,03,00,16,17.80
2009,06,03,00,17,17.70
2009,06,03,00,18,17.70
2009,06,03,00,19,17.60
2009,06,03,00,20,17.50
2009,06,03,00,21,17.50
2009,06,03,00,22,17.40
2009,06,03,00,23,17.40
2009,06,03,00,24,17.30
2009,06,03,00,25,17.30
2009,06,03,00,26,17.30
2009,06,03,00,27,17.30
2009,06,03,00,28,17.30
2009,06,03,00,29,17.30
2009,06,03,00,30,17.30
2009,06,03,00,31,17.30
2009,06,03,00,32,17.20
2009,06,03,00,33,17.20
2009,06,03,00,34,17.20
2009,06,03,00,35,17.20
2009,06,03,00,36,17.20
2009,06,03,00,37,17.20
2009,06,03,00,38,17.20
2009,06,03,00,39,17.20
2009,06,03,00,40,17.20
2009,06,03,00,41,17.20
2009,06,03,00,42,17.20
2009,06,03,00,43,17.20
2009,06,03,00,44,17.20
2009,06,03,00,45,17.20
2009,06,03,00,46,17.20
2009,06,03,00,47,17.20
2009,06,03,00,48,17.20
2009,06,03,00,49,17.20
2009,06,03,00,50,17.10
2009,06,03,00,51,17.10
2009,06,03,00,52,17.10
2009,06,03,00,53,17.10
2009,06,03,00,54,17.00
2009,06,03,00,55,17.00
2009,06,03,00,56,17.00
2009,06,03,00,57,17.00
2009,06,03,00,58,17.00
2009,06,03,00,59,17.00
2009,06,03,01,00,17.00
2009,06,03,01,01,17.00
2009,06,03,01,02,16.90
2009,06,03,01,03,16.90
2009,06,03,01,04,16.90
2009,06,03,01,05,16.90
2009,06,03,01,06,16.80
2009,06,03,01,07,16.80
2009,06,03,01,08,16.80
2009,06,03,01,09,16.70
2009,06,03,01,10,16.70
2009,06,03,01,11,16.70
2009,06,03,01,12,16.70
2009,06,03,01,13,16.60
2009,06,03,01,14,16.60
2009,06,03,01,15,16.60
2009,06,03,01,16,16.60
2009,06,03,01,17,16.50
2009,06,03,01,18,16.40
2009,06,03,01,19,16.40
2009,06,03,01,20,16.40
2009,06,03,01,21,16.40
2009,06,03,01,22,16.40
2009,06,03,01,23,16.40
2009,06,03,01,24,16.30
2009,06,03,01,25,16.30
2009,06,03,01,26,16.30
2009,06,03,01,27,16.20
2009,06,03,01,28,16.20
2009,06,03,01,29,16.20
2009,06,03,01,30,16.10
2009,06,03,01,31,16.10
2009,06,03,01,32,16.10
2009,06,03,01,33,16.10
2009,06,03,01,34,16.10
2009,06,03,01,35,16.10
2009,06,03,01,36,16.10
2009,06,03,01,37,15.90
2009,06,03,01,38,15.90
2009,06,03,01,39,15.90
2009,06,03,01,40,15.80
2009,06,03,01,41,15.80
2009,06,03,01,42,15.80
2009,06,03,01,43,15.80
2009,06,03,01,44,15.80
2009,06,03,01,45,15.80
2009,06,03,01,46,15.80
2009,06,03,01,47,15.80
2009,06,03,01,48,15.80
2009,06,03,01,49,15.80
2009,06,03,01,50,15.80
2009,06,03,01,51,15.80
2009,06,03,01,52,15.80
2009,06,03,01,53,15.80
2009,06,03,01,54,15.80
2009,06,03,01,55,15.80
2009,06,03,01,56,15.70
2009,06,03,01,57,15.70
2009,06,03,01,58,15.70
2009,06,03,01,59,15.60
2009,06,03,02,00,15.60
2009,06,03,02,01,15.60
2009,06,03,02,02,15.60
2009,06,03,02,03,15.50
2009,06,03,02,04,15.50
2009,06,03,02,05,15.50
2009,06,03,02,06,15.50
2009,06,03,02,07,15.40
2009,06,03,02,08,15.40
2009,06,03,02,09,15.40
2009,06,03,02,10,15.30
2009,06,03,02,11,15.30
2009,06,03,02,12,15.30
2009,06,03,02,13,15.30
2009,06,03,02,14,15.30
2009,06,03,02,15,15.30
2009,06,03,02,16,15.30
2009,06,03,02,17,15.30
2009,06,03,02,18,15.30
2009,06,03,02,19,15.20
2009,06,03,02,20,15.20
2009,06,03,02,21,15.20
2009,06,03,02,22,15.20
2009,06,03,02,23,15.20
2009,06,03,02,24,15.20
2009,06,03,02,25,15.20
2009,06,03,02,26,15.20
2009,06,03,02,27,15.10
2009,06,03,02,28,15.10
2009,06,03,02,29,15.10
2009,06,03,02,30,15.10
2009,06,03,02,31,15.10
2009,06,03,02,32,15.00
2009,06,03,02,33,15.00
2009,06,03,02,34,15.00
2009,06,03,02,35,14.90
2009,06,03,02,36,14.90
2009,06,03,02,37,14.90
2009,06,03,02,38,14.90
2009,06,03,02,39,14.90
2009,06,03,02,40,14.90
2009,06,03,02,41,14.90
2009,06,03,02,42,15.00
2009,06,03,02,43,15.00
2009,06,03,02,44,15.00
2009,06,03,02,45,15.00
2009,06,03,02,46,15.00
2009,06,03,02,47,15.00
2009,06,03,02,48,14.90
2009,06,03,02,49,14.90
2009,06,03,02,50,14.90
2009,06,03,02,51,14.90
2009,06,03,02,52,14.90
2009,06,03,02,53,14.90
2009,06,03,02,54,14.90
2009,06,03,02,55,14.80
2009,06,03,02,56,14.80
2009,06,03,02,57,14.80
2009,06,03,02,58,14.80
2009,06,03,02,59,14.80
2009,06,03,03,00,14.80
2009,06,03,03,01,14.80
2009,06,03,03,02,14.80
2009,06,03,03,03,14.80
2009,06,03,03,04,14.80
2009,06,03,03,05,14.80
2009,06,03,03,06,14.80
2009,06,03,03,07,14.80
2009,06,03,03,08,14.80
2009,06,03,03,09,14.80
2009,06,03,03,10,14.80
2009,06,03,03,11,14.80
2009,06,03,03,12,14.80
2009,06,03,03,13,14.80
2009,06,03,03,14,14.80
2009,06,03,03,15,14.80
2009,06,03,03,16,14.80
2009,06,03,03,17,14.70
2009,06,03,03,18,14.70
2009,06,03,03,19,14.70
2009,06,03,03,20,14.70
2009,06,03,03,21,14.70
2009,06,03,03,22,14.70
2009,06,03,03,23,14.60
2009,06,03,03,24,14.60
2009,06,03,03,25,14.60
2009,06,03,03,26,14.60
2009,06,03,03,27,14.60
2009,06,03,03,28,14.50
2009,06,03,03,29,14.50
2009,06,03,03,30,14.50
2009,06,03,03,31,14.50
2009,06,03,03,32,14.40
2009,06,03,03,33,14.40
2009,06,03,03,34,14.40
2009,06,03,03,35,14.40
2009,06,03,03,36,14.30
2009,06,03,03,37,14.30
2009,06,03,03,38,14.30
2009,06,03,03,39,14.20
2009,06,03,03,40,14.20
2009,06,03,03,41,14.20
2009,06,03,03,42,14.20
2009,06,03,03,43,14.10
2009,06,03,03,44,14.10
2009,06,03,03,45,14.10
2009,06,03,03,46,14.00
2009,06,03,03,47,14.00
2009,06,03,03,48,14.00
2009,06,03,03,49,14.00
2009,06,03,03,50,13.90
2009,06,03,03,51,13.90
2009,06,03,03,52,13.90
2009,06,03,03,53,13.90
2009,06,03,03,54,13.80
2009,06,03,03,55,13.80
2009,06,03,03,56,13.80
2009,06,03,03,57,13.80
2009,06,03,03,58,13.80
2009,06,03,03,59,13.80
2009,06,03,04,00,13.80
2009,06,03,04,01,13.70
2009,06,03,04,02,13.70
2009,06,03,04,03,13.70
2009,06,03,04,04,13.80
2009,06,03,04,05,13.80
2009,06,03,04,06,13.80
2009,06,03,04,07,13.70
2009,06,03,04,08,13.70
2009,06,03,04,09,13.70
2009,06,03,04,10,13.70
2009,06,03,04,11,13.70
2009,06,03,04,12,13.70
2009,06,03,04,13,13.70
2009,06,03,04,14,13.70
2009,06,03,04,15,13.70
2009,06,03,04,16,13.70
2009,06,03,04,17,13.70
2009,06,03,04,18,13.70
2009,06,03,04,19,13.70
2009,06,03,04,20,13.70
2009,06,03,04,21,13.70
2009,06,03,04,22,13.70
2009,06,03,04,23,13.70
2009,06,03,04,24,13.70
2009,06,03,04,25,13.70
2009,06,03,04,26,13.70
2009,06,03,04,27,13.70
2009,06,03,04,28,13.70
2009,06,03,04,29,13.70
2009,06,03,04,30,13.70
2009,06,03,04,31,13.70
2009,06,03,04,32,13.70
2009,06,03,04,33,13.70
2009,06,03,04,34,13.70
2009,06,03,04,35,13.70
2009,06,03,04,36,13.70
2009,06,03,04,37,13.70
2009,06,03,04,38,13.70
2009,06,03,04,39,13.70
2009,06,03,04,40,13.70
2009,06,03,04,41,13.70
2009,06,03,04,42,13.70
2009,06,03,04,43,13.70
2009,06,03,04,44,13.70
2009,06,03,04,45,13.70
2009,06,03,04,46,13.70
2009,06,03,04,47,13.70
2009,06,03,04,48,13.70
2009,06,03,04,49,13.70
2009,06,03,04,50,13.70
2009,06,03,04,51,13.70
2009,06,03,04,52,13.70
2009,06,03,04,53,13.70
2009,06,03,04,54,13.70
2009,06,03,04,55,13.60
2009,06,03,04,56,13.60
2009,06,03,04,57,13.50
2009,06,03,04,58,13.40
2009,06,03,04,59,13.40
2009,06,03,05,00,13.30
2009,06,03,05,01,13.30
2009,06,03,05,02,13.30
2009,06,03,05,03,13.30
2009,06,03,05,04,13.30
2009,06,03,05,05,13.30
2009,06,03,05,06,13.30
2009,06,03,05,07,13.30
2009,06,03,05,08,13.30
2009,06,03,05,09,13.30
2009,06,03,05,10,13.30
2009,06,03,05,11,13.30
2009,06,03,05,12,13.30
2009,06,03,05,13,13.30
2009,06,03,05,14,13.30
2009,06,03,05,15,13.30
2009,06,03,05,16,13.30
2009,06,03,05,17,13.30
2009,06,03,05,18,13.30
2009,06,03,05,19,13.30
2009,06,03,05,20,13.30
2009,06,03,05,21,13.30
2009,06,03,05,22,13.30
2009,06,03,05,23,13.30
2009,06,03,05,24,13.30
2009,06,03,05,25,13.30
2009,06,03,05,26,13.30
2009,06,03,05,27,13.30
2009,06,03,05,28,13.40
2009,06,03,05,29,13.40
2009,06,03,05,30,13.40
2009,06,03,05,31,13.40
2009,06,03,05,32,13.40
2009,06,03,05,33,13.40
2009,06,03,05,34,13.40
2009,06,03,05,35,13.50
2009,06,03,05,36,13.50
2009,06,03,05,37,13.50
2009,06,03,05,38,13.50
2009,06,03,05,39,13.50
2009,06,03,05,40,13.60
2009,06,03,05,41,13.60
2009,06,03,05,42,13.70
2009,06,03,05,43,13.70
2009,06,03,05,44,13.80
2009,06,03,05,45,13.90
2009,06,03,05,46,14.00
2009,06,03,05,47,14.10
2009,06,03,05,48,14.20
2009,06,03,05,49,14.40
2009,06,03,05,50,14.60
2009,06,03,05,51,14.70
2009,06,03,05,52,14.80
2009,06,03,05,53,15.00
2009,06,03,05,54,15.10
2009,06,03,05,55,15.20
2009,06,03,05,56,15.40
2009,06,03,05,57,15.50
2009,06,03,05,58,15.60
2009,06,03,05,59,15.70
2009,06,03,06,00,15.90
2009,06,03,06,01,16.00
2009,06,03,06,02,16.10
2009,06,03,06,03,16.10
2009,06,03,06,04,16.20
2009,06,03,06,05,16.30
2009,06,03,06,06,16.40
2009,06,03,06,07,16.40
2009,06,03,06,08,16.50
2009,06,03,06,09,16.60
2009,06,03,06,10,16.70
2009,06,03,06,11,16.80
2009,06,03,06,12,16.90
2009,06,03,06,13,17.00
2009,06,03,06,14,17.20
2009,06,03,06,15,17.30
2009,06,03,06,16,17.40
2009,06,03,06,17,17.50
2009,06,03,06,18,17.60
2009,06,03,06,19,17.70
2009,06,03,06,20,17.80
2009,06,03,06,21,17.80
2009,06,03,06,22,17.90
2009,06,03,06,23,17.90
2009,06,03,06,24,17.90
2009,06,03,06,25,18.00
2009,06,03,06,26,18.10
2009,06,03,06,27,18.10
2009,06,03,06,28,18.20
2009,06,03,06,29,18.20
2009,06,03,06,30,18.20
2009,06,03,06,31,18.20
2009,06,03,06,32,18.20
2009,06,03,06,33,18.20
2009,06,03,06,34,18.20
2009,06,03,06,35,18.30
2009,06,03,06,36,18.30
2009,06,03,06,37,18.30
2009,06,03,06,38,18.30
2009,06,03,06,39,18.30
2009,06,03,06,40,18.30
2009,06,03,06,41,18.30
2009,06,03,06,42,18.30
2009,06,03,06,43,18.30
2009,06,03,06,44,18.30
2009,06,03,06,45,18.40
2009,06,03,06,46,18.30
2009,06,03,06,47,18.40
2009,06,03,06,48,18.30
2009,06,03,06,49,18.30
2009,06,03,06,50,18.30
2009,06,03,06,51,18.30
2009,06,03,06,52,18.30
2009,06,03,06,53,18.30
2009,06,03,06,54,18.30
2009,06,03,06,55,18.30
2009,06,03,06,56,18.30
2009,06,03,06,57,18.30
2009,06,03,06,58,18.30
2009,06,03,06,59,18.30
2009,06,03,07,00,18.30
2009,06,03,07,01,18.30
2009,06,03,07,02,18.30
2009,06,03,07,03,18.30
2009,06,03,07,04,18.30
2009,06,03,07,05,18.30
2009,06,03,07,06,18.30
2009,06,03,07,07,18.30
2009,06,03,07,08,18.30
2009,06,03,07,09,18.30
2009,06,03,07,10,18.30
2009,06,03,07,11,18.30
2009,06,03,07,12,18.40
2009,06,03,07,13,18.40
2009,06,03,07,14,18.40
2009,06,03,07,15,18.50
2009,06,03,07,16,18.50
2009,06,03,07,17,18.60
2009,06,03,07,18,18.60
2009,06,03,07,19,18.70
2009,06,03,07,20,18.70
2009,06,03,07,21,18.80
2009,06,03,07,22,18.80
2009,06,03,07,23,18.90
2009,06,03,07,24,18.90
2009,06,03,07,25,19.10
2009,06,03,07,26,19.10
2009,06,03,07,27,19.20
2009,06,03,07,28,19.20
2009,06,03,07,29,19.30
2009,06,03,07,30,19.40
2009,06,03,07,31,19.40
2009,06,03,07,32,19.50
2009,06,03,07,33,19.60
2009,06,03,07,34,19.60
2009,06,03,07,35,19.70
2009,06,03,07,36,19.70
2009,06,03,07,37,19.80
2009,06,03,07,38,19.90
2009,06,03,07,39,19.90
2009,06,03,07,40,19.90
2009,06,03,07,41,19.90
2009,06,03,07,42,20.10
2009,06,03,07,43,20.10
2009,06,03,07,44,20.20
2009,06,03,07,45,20.20
2009,06,03,07,46,20.20
2009,06,03,07,47,20.20
2009,06,03,07,48,20.30
2009,06,03,07,49,20.30
2009,06,03,07,50,20.40
2009,06,03,07,51,20.40
2009,06,03,07,52,20.40
2009,06,03,07,53,20.50
2009,06,03,07,54,20.50
2009,06,03,07,55,20.60
2009,06,03,07,56,20.70
2009,06,03,07,57,20.70
2009,06,03,07,58,20.70
2009,06,03,07,59,20.80
2009,06,03,08,00,20.80
2009,06,03,08,01,20.80
2009,06,03,08,02,20.80
2009,06,03,08,03,20.80
2009,06,03,08,04,20.80
2009,06,03,08,05,20.90
2009,06,03,08,06,20.90
2009,06,03,08,07,21.00
2009,06,03,08,08,21.00
2009,06,03,08,09,21.00
2009,06,03,08,10,21.10
2009,06,03,08,11,21.10
2009,06,03,08,12,21.20
2009,06,03,08,13,21.20
2009,06,03,08,14,21.20
2009,06,03,08,15,21.30
2009,06,03,08,16,21.30
2009,06,03,08,17,21.30
2009,06,03,08,18,21.30
2009,06,03,08,19,21.40
2009,06,03,08,20,21.40
2009,06,03,08,21,21.50
2009,06,03,08,22,21.60
2009,06,03,08,23,21.60
2009,06,03,08,24,21.60
2009,06,03,08,25,21.70
2009,06,03,08,26,21.70
2009,06,03,08,27,21.70
2009,06,03,08,28,21.80
2009,06,03,08,29,21.80
2009,06,03,08,30,21.90
2009,06,03,08,31,21.90
2009,06,03,08,32,21.90
2009,06,03,08,33,22.00
2009,06,03,08,34,22.00
2009,06,03,08,35,22.00
2009,06,03,08,36,22.00
2009,06,03,08,37,22.10
2009,06,03,08,38,22.20
2009,06,03,08,39,22.20
2009,06,03,08,40,22.30
2009,06,03,08,41,22.30
2009,06,03,08,42,22.30
2009,06,03,08,43,22.30
2009,06,03,08,44,22.30
2009,06,03,08,45,22.30
2009,06,03,08,46,22.40
2009,06,03,08,47,22.40
2009,06,03,08,48,22.40
2009,06,03,08,49,22.40
2009,06,03,08,50,22.40
2009,06,03,08,51,22.40
2009,06,03,08,52,22.50
2009,06,03,08,53,22.50
2009,06,03,08,54,22.60
2009,06,03,08,55,22.70
2009,06,03,08,56,22.70
2009,06,03,08,57,22.80
2009,06,03,08,58,22.90
2009,06,03,08,59,22.90
2009,06,03,09,00,22.90
2009,06,03,09,01,22.90
2009,06,03,09,02,23.00
2009,06,03,09,03,23.10
2009,06,03,09,04,23.10
2009,06,03,09,05,23.10
2009,06,03,09,06,23.10
2009,06,03,09,07,23.20
2009,06,03,09,08,23.20
2009,06,03,09,09,23.30
2009,06,03,09,10,23.30
2009,06,03,09,11,23.30
2009,06,03,09,12,23.40
2009,06,03,09,13,23.40
2009,06,03,09,14,23.30
2009,06,03,09,15,23.30
2009,06,03,09,16,23.30
2009,06,03,09,17,23.30
2009,06,03,09,18,23.30
2009,06,03,09,19,23.30
2009,06,03,09,20,23.30
2009,06,03,09,21,23.30
2009,06,03,09,22,23.30
2009,06,03,09,23,23.30
2009,06,03,09,24,23.30
2009,06,03,09,25,23.30
2009,06,03,09,26,23.40
2009,06,03,09,27,23.40
2009,06,03,09,28,23.40
2009,06,03,09,29,23.40
2009,06,03,09,30,23.40
2009,06,03,09,31,23.40
2009,06,03,09,32,23.50
2009,06,03,09,33,23.60
2009,06,03,09,34,23.70
2009,06,03,09,35,23.80
2009,06,03,09,36,23.80
2009,06,03,09,37,23.80
2009,06,03,09,38,23.70
2009,06,03,09,39,23.60
2009,06,03,09,40,23.60
2009,06,03,09,41,23.60
2009,06,03,09,42,23.70
2009,06,03,09,43,23.70
2009,06,03,09,44,23.70
2009,06,03,09,45,23.70
2009,06,03,09,46,23.70
2009,06,03,09,47,23.70
2009,06,03,09,48,23.70
2009,06,03,09,49,23.70
2009,06,03,09,50,23.70
2009,06,03,09,51,23.70
2009,06,03,09,52,23.70
2009,06,03,09,53,23.70
2009,06,03,09,54,23.70
2009,06,03,09,55,23.80
2009,06,03,09,56,23.90
2009,06,03,09,57,24.10
2009,06,03,09,58,24.20
2009,06,03,09,59,24.30
2009,06,03,10,00,24.30
2009,06,03,10,01,24.40
2009,06,03,10,02,24.40
2009,06,03,10,03,24.40
2009,06,03,10,04,24.40
2009,06,03,10,05,24.50
2009,06,03,10,06,24.60
2009,06,03,10,07,24.60
2009,06,03,10,08,24.50
2009,06,03,10,09,24.40
2009,06,03,10,10,24.30
2009,06,03,10,11,24.30
2009,06,03,10,12,24.30
2009,06,03,10,13,24.40
2009,06,03,10,14,24.50
2009,06,03,10,15,24.60
2009,06,03,10,16,24.60
2009,06,03,10,17,24.70
2009,06,03,10,18,24.80
2009,06,03,10,19,24.80
2009,06,03,10,20,24.70
2009,06,03,10,21,24.70
2009,06,03,10,22,24.70
2009,06,03,10,23,24.70
2009,06,03,10,24,24.70
2009,06,03,10,25,24.80
2009,06,03,10,26,24.80
2009,06,03,10,27,24.80
2009,06,03,10,28,24.80
2009,06,03,10,29,24.80
2009,06,03,10,30,24.70
2009,06,03,10,31,24.80
2009,06,03,10,32,24.80
2009,06,03,10,33,24.80
2009,06,03,10,34,24.80
2009,06,03,10,35,24.80
2009,06,03,10,36,24.80
2009,06,03,10,37,24.80
2009,06,03,10,38,24.90
2009,06,03,10,39,24.90
2009,06,03,10,40,24.90
2009,06,03,10,41,24.90
2009,06,03,10,42,25.00
2009,06,03,10,43,25.00
2009,06,03,10,44,25.10
2009,06,03,10,45,25.20
2009,06,03,10,46,25.20
2009,06,03,10,47,25.20
2009,06,03,10,48,25.10
2009,06,03,10,49,25.10
2009,06,03,10,50,25.10
2009,06,03,10,51,25.20
2009,06,03,10,52,25.20
2009,06,03,10,53,25.30
2009,06,03,10,54,25.20
2009,06,03,10,55,25.30
2009,06,03,10,56,25.20
2009,06,03,10,57,25.20
2009,06,03,10,58,25.20
2009,06,03,10,59,25.30
2009,06,03,11,00,25.30
2009,06,03,11,01,25.30
2009,06,03,11,02,25.40
2009,06,03,11,03,25.40
2009,06,03,11,04,25.50
2009,06,03,11,05,25.50
2009,06,03,11,06,25.60
2009,06,03,11,07,25.60
2009,06,03,11,08,25.60
2009,06,03,11,09,25.60
2009,06,03,11,10,25.60
2009,06,03,11,11,25.80
2009,06,03,11,12,25.90
2009,06,03,11,13,26.00
2009,06,03,11,14,26.10
2009,06,03,11,15,26.10
2009,06,03,11,16,26.00
2009,06,03,11,17,26.00
2009,06,03,11,18,25.90
2009,06,03,11,19,25.80
2009,06,03,11,20,25.90
2009,06,03,11,21,25.90
2009,06,03,11,22,25.90
2009,06,03,11,23,26.00
2009,06,03,11,24,26.00
2009,06,03,11,25,26.10
2009,06,03,11,26,26.20
2009,06,03,11,27,26.30
2009,06,03,11,28,26.30
2009,06,03,11,29,26.30
2009,06,03,11,30,26.30
2009,06,03,11,31,26.30
2009,06,03,11,32,26.30
2009,06,03,11,33,26.40
2009,06,03,11,34,26.50
2009,06,03,11,35,26.60
2009,06,03,11,36,26.70
2009,06,03,11,37,26.70
2009,06,03,11,38,26.60
2009,06,03,11,39,26.60
2009,06,03,11,40,26.60
2009,06,03,11,41,26.60
2009,06,03,11,42,26.60
2009,06,03,11,43,26.50
2009,06,03,11,44,26.40
2009,06,03,11,45,26.20
2009,06,03,11,46,26.20
2009,06,03,11,47,26.20
2009,06,03,11,48,26.20
2009,06,03,11,49,26.30
2009,06,03,11,50,26.40
2009,06,03,11,51,26.50
2009,06,03,11,52,26.60
2009,06,03,11,53,26.60
2009,06,03,11,54,26.70
2009,06,03,11,55,26.80
2009,06,03,11,56,26.90
2009,06,03,11,57,26.90
2009,06,03,11,58,27.00
2009,06,03,11,59,26.90
2009,06,03,12,00,26.90
2009,06,03,12,01,26.90
2009,06,03,12,02,26.70
2009,06,03,12,03,26.60
2009,06,03,12,04,26.60
2009,06,03,12,05,26.50
2009,06,03,12,06,26.50
2009,06,03,12,07,26.60
2009,06,03,12,08,26.70
2009,06,03,12,09,26.80
2009,06,03,12,10,26.90
2009,06,03,12,11,27.00
2009,06,03,12,12,27.10
2009,06,03,12,13,27.00
2009,06,03,12,14,26.90
2009,06,03,12,15,26.90
2009,06,03,12,16,26.90
2009,06,03,12,17,26.80
2009,06,03,12,18,26.70
2009,06,03,12,19,26.60
2009,06,03,12,20,26.60
2009,06,03,12,21,26.70
2009,06,03,12,22,26.70
2009,06,03,12,23,26.60
2009,06,03,12,24,26.60
2009,06,03,12,25,26.60
2009,06,03,12,26,26.70
2009,06,03,12,27,26.70
2009,06,03,12,28,26.80
2009,06,03,12,29,26.80
2009,06,03,12,30,26.80
2009,06,03,12,31,26.90
2009,06,03,12,32,27.00
2009,06,03,12,33,27.20
2009,06,03,12,34,27.30
2009,06,03,12,35,27.30
2009,06,03,12,36,27.20
2009,06,03,12,37,27.10
2009,06,03,12,38,27.00
2009,06,03,12,39,26.90
2009,06,03,12,40,27.00
2009,06,03,12,41,27.10
2009,06,03,12,42,27.20
2009,06,03,12,43,27.30
2009,06,03,12,44,27.30
2009,06,03,12,45,27.20
2009,06,03,12,46,27.10
2009,06,03,12,47,27.10
2009,06,03,12,48,27.10
2009,06,03,12,49,27.10
2009,06,03,12,50,27.10
2009,06,03,12,51,27.00
2009,06,03,12,52,27.10
2009,06,03,12,53,27.10
2009,06,03,12,54,27.20
2009,06,03,12,55,27.40
2009,06,03,12,56,27.40
2009,06,03,12,57,27.50
2009,06,03,12,58,27.60
2009,06,03,12,59,27.60
2009,06,03,13,00,27.50
2009,06,03,13,01,27.40
2009,06,03,13,02,27.40
2009,06,03,13,03,27.40
2009,06,03,13,04,27.30
2009,06,03,13,05,27.30
2009,06,03,13,06,27.30
2009,06,03,13,07,27.30
2009,06,03,13,08,27.30
2009,06,03,13,09,27.30
2009,06,03,13,10,27.30
2009,06,03,13,11,27.40
2009,06,03,13,12,27.50
2009,06,03,13,13,27.60
2009,06,03,13,14,27.60
2009,06,03,13,15,27.70
2009,06,03,13,16,27.80
2009,06,03,13,17,27.80
2009,06,03,13,18,27.80
2009,06,03,13,19,27.80
2009,06,03,13,20,27.80
2009,06,03,13,21,27.70
2009,06,03,13,22,27.70
2009,06,03,13,23,27.70
2009,06,03,13,24,27.90
2009,06,03,13,25,28.00
2009,06,03,13,26,28.00
2009,06,03,13,27,28.00
2009,06,03,13,28,28.00
2009,06,03,13,29,28.10
2009,06,03,13,30,28.10
2009,06,03,13,31,28.20
2009,06,03,13,32,28.30
2009,06,03,13,33,28.40
2009,06,03,13,34,28.50
2009,06,03,13,35,28.70
2009,06,03,13,36,28.60
2009,06,03,13,37,28.60
2009,06,03,13,38,28.60
2009,06,03,13,39,28.60
2009,06,03,13,40,28.70
2009,06,03,13,41,28.90
2009,06,03,13,42,28.80
2009,06,03,13,43,28.70
2009,06,03,13,44,28.60
2009,06,03,13,45,28.70
2009,06,03,13,46,28.80
2009,06,03,13,47,28.80
2009,06,03,13,48,28.80
2009,06,03,13,49,28.80
2009,06,03,13,50,28.80
2009,06,03,13,51,28.80
2009,06,03,13,52,28.80
2009,06,03,13,53,28.80
2009,06,03,13,54,28.80
2009,06,03,13,55,28.80
2009,06,03,13,56,28.80
2009,06,03,13,57,28.80
2009,06,03,13,58,28.90
2009,06,03,13,59,28.90
2009,06,03,14,00,28.90
2009,06,03,14,01,28.90
2009,06,03,14,02,29.00
2009,06,03,14,03,29.10
2009,06,03,14,04,29.20
2009,06,03,14,05,29.20
2009,06,03,14,06,29.20
2009,06,03,14,07,29.30
2009,06,03,14,08,29.40
2009,06,03,14,09,29.50
2009,06,03,14,10,29.50
2009,06,03,14,11,29.70
2009,06,03,14,12,29.80
2009,06,03,14,13,29.90
2009,06,03,14,14,30.10
2009,06,03,14,15,30.10
2009,06,03,14,16,30.10
2009,06,03,14,17,30.00
2009,06,03,14,18,30.00
2009,06,03,14,19,30.10
2009,06,03,14,20,29.90
2009,06,03,14,21,29.80
2009,06,03,14,22,29.60
2009,06,03,14,23,29.40
2009,06,03,14,24,29.20
2009,06,03,14,25,29.10
2009,06,03,14,26,29.10
2009,06,03,14,27,29.10
2009,06,03,14,28,29.10
2009,06,03,14,29,29.10
2009,06,03,14,30,29.10
2009,06,03,14,31,29.20
2009,06,03,14,32,29.30
2009,06,03,14,33,29.30
2009,06,03,14,34,29.30
2009,06,03,14,35,29.20
2009,06,03,14,36,29.10
2009,06,03,14,37,29.10
2009,06,03,14,38,29.20
2009,06,03,14,39,29.10
2009,06,03,14,40,29.10
2009,06,03,14,41,29.10
2009,06,03,14,42,29.20
2009,06,03,14,43,29.30
2009,06,03,14,44,29.40
2009,06,03,14,45,29.50
2009,06,03,14,46,29.60
2009,06,03,14,47,29.60
2009,06,03,14,48,29.50
2009,06,03,14,49,29.50
2009,06,03,14,50,29.50
2009,06,03,14,51,29.70
2009,06,03,14,52,29.80
2009,06,03,14,53,29.90
2009,06,03,14,54,30.00
2009,06,03,14,55,30.10
2009,06,03,14,56,30.20
2009,06,03,14,57,30.30
2009,06,03,14,58,30.30
2009,06,03,14,59,30.30
2009,06,03,15,00,30.30
2009,06,03,15,01,30.20
2009,06,03,15,02,30.20
2009,06,03,15,03,30.20
2009,06,03,15,04,30.20
2009,06,03,15,05,30.20
2009,06,03,15,06,30.20
2009,06,03,15,07,30.10
2009,06,03,15,08,30.10
2009,06,03,15,09,30.20
2009,06,03,15,10,30.20
2009,06,03,15,11,30.20
2009,06,03,15,12,30.20
2009,06,03,15,13,30.30
2009,06,03,15,14,30.30
2009,06,03,15,15,30.30
2009,06,03,15,16,30.30
2009,06,03,15,17,30.40
2009,06,03,15,18,30.60
2009,06,03,15,19,30.80
2009,06,03,15,20,30.90
2009,06,03,15,21,31.00
2009,06,03,15,22,31.00
2009,06,03,15,23,31.10
2009,06,03,15,24,31.20
2009,06,03,15,25,31.20
2009,06,03,15,26,31.30
2009,06,03,15,27,31.30
2009,06,03,15,28,31.10
2009,06,03,15,29,31.00
2009,06,03,15,30,30.90
2009,06,03,15,31,30.70
2009,06,03,15,32,30.60
2009,06,03,15,33,30.60
2009,06,03,15,34,30.60
2009,06,03,15,35,30.30
2009,06,03,15,36,30.00
2009,06,03,15,37,29.60
2009,06,03,15,38,29.20
2009,06,03,15,39,28.90
2009,06,03,15,40,28.70
2009,06,03,15,41,28.40
2009,06,03,15,42,28.20
2009,06,03,15,43,28.10
2009,06,03,15,44,28.10
2009,06,03,15,45,27.90
2009,06,03,15,46,27.70
2009,06,03,15,47,27.70
2009,06,03,15,48,27.90
2009,06,03,15,49,27.80
2009,06,03,15,50,27.80
2009,06,03,15,51,27.80
2009,06,03,15,52,27.70
2009,06,03,15,53,27.80
2009,06,03,15,54,27.80
2009,06,03,15,55,27.70
2009,06,03,15,56,27.80
2009,06,03,15,57,27.80
2009,06,03,15,58,27.90
2009,06,03,15,59,27.90
2009,06,03,16,00,28.00
2009,06,03,16,01,27.90
2009,06,03,16,02,28.00
2009,06,03,16,03,28.00
2009,06,03,16,04,28.10
2009,06,03,16,05,28.10
2009,06,03,16,06,28.10
2009,06,03,16,07,28.10
2009,06,03,16,08,28.10
2009,06,03,16,09,28.20
2009,06,03,16,10,28.10
2009,06,03,16,11,28.20
2009,06,03,16,12,28.30
2009,06,03,16,13,28.30
2009,06,03,16,14,28.40
2009,06,03,16,15,28.50
2009,06,03,16,16,28.60
2009,06,03,16,17,28.70
2009,06,03,16,18,28.80
2009,06,03,16,19,28.80
2009,06,03,16,20,28.80
2009,06,03,16,21,28.90
2009,06,03,16,22,28.90
2009,06,03,16,23,29.10
2009,06,03,16,24,29.20
2009,06,03,16,25,29.30
2009,06,03,16,26,29.40
2009,06,03,16,27,29.50
2009,06,03,16,28,29.50
2009,06,03,16,29,29.50
2009,06,03,16,30,29.50
2009,06,03,16,31,29.50
2009,06,03,16,32,29.60
2009,06,03,16,33,29.70
2009,06,03,16,34,29.80
2009,06,03,16,35,29.90
2009,06,03,16,36,29.90
2009,06,03,16,37,29.90
2009,06,03,16,38,29.80
2009,06,03,16,39,29.80
2009,06,03,16,40,29.80
2009,06,03,16,41,29.90
2009,06,03,16,42,29.90
2009,06,03,16,43,29.90
2009,06,03,16,44,29.90
2009,06,03,16,45,29.90
2009,06,03,16,46,29.90
2009,06,03,16,47,29.90
2009,06,03,16,48,30.00
2009,06,03,16,49,30.10
2009,06,03,16,50,30.20
2009,06,03,16,51,30.30
2009,06,03,16,52,30.40
2009,06,03,16,53,30.60
2009,06,03,16,54,30.70
2009,06,03,16,55,30.80
2009,06,03,16,56,30.90
2009,06,03,16,57,31.00
2009,06,03,16,58,31.10
2009,06,03,16,59,31.30
2009,06,03,17,00,31.40
2009,06,03,17,01,31.60
2009,06,03,17,02,31.70
2009,06,03,17,03,31.70
2009,06,03,17,04,31.70
2009,06,03,17,05,31.60
2009,06,03,17,06,31.60
2009,06,03,17,07,31.60
2009,06,03,17,08,31.50
2009,06,03,17,09,31.40
2009,06,03,17,10,31.40
2009,06,03,17,11,31.50
2009,06,03,17,12,31.60
2009,06,03,17,13,31.60
2009,06,03,17,14,31.60
2009,06,03,17,15,31.60
2009,06,03,17,16,31.60
2009,06,03,17,17,31.50
2009,06,03,17,18,31.40
2009,06,03,17,19,31.30